This is the latest recevied weather packets stored in our database for station/object OK1KKY-18. If no packets are shown the sender has not sent any weather packets the latest 10 day(s).
| Time | Temp. | Humidity | Pressure | Rain* | Wind** | Luminosity | Snow |
|---|---|---|---|---|---|---|---|
| 1777824956 | 21.67° C | 30% | 1014.7 hPa | - | - | - | - |
| 1777824355 | 21.67° C | 28% | 1014.8 hPa | - | - | - | - |
| 1777823756 | 21.67° C | 30% | 1014.9 hPa | - | - | - | - |
| 1777823155 | 22.22° C | 28% | 1014.9 hPa | - | - | - | - |
| 1777822556 | 22.78° C | 28% | 1015 hPa | - | - | - | - |
| 1777821956 | 23.33° C | 26% | 1015.1 hPa | - | - | - | - |
| 1777821360 | 23.89° C | 25% | 1015.1 hPa | - | - | - | - |
| 1777820754 | 23.89° C | 24% | 1015.3 hPa | - | - | - | - |
| 1777820154 | 24.44° C | 24% | 1015.4 hPa | - | - | - | - |
| 1777819554 | 24.44° C | 24% | 1015.5 hPa | - | - | - | - |
| 1777818954 | 24.44° C | 24% | 1015.6 hPa | - | - | - | - |
| 1777818354 | 24.44° C | 25% | 1015.7 hPa | - | - | - | - |
| 1777817754 | 24.44° C | 25% | 1015.8 hPa | - | - | - | - |
| 1777817154 | 23.89° C | 24% | 1015.8 hPa | - | - | - | - |
| 1777816554 | 23.89° C | 24% | 1016 hPa | - | - | - | - |
| 1777815954 | 23.33° C | 26% | 1016.1 hPa | - | - | - | - |
| 1777815355 | 23.33° C | 27% | 1016.2 hPa | - | - | - | - |
| 1777814754 | 23.89° C | 25% | 1016.2 hPa | - | - | - | - |
| 1777814154 | 23.33° C | 27% | 1016.4 hPa | - | - | - | - |
| 1777813554 | 23.33° C | 28% | 1016.5 hPa | - | - | - | - |
| 1777812954 | 22.78° C | 30% | 1016.7 hPa | - | - | - | - |
| 1777812354 | 22.78° C | 28% | 1016.8 hPa | - | - | - | - |
| 1777811754 | 22.22° C | 27% | 1016.9 hPa | - | - | - | - |
| 1777811154 | 21.67° C | 27% | 1016.9 hPa | - | - | - | - |
| 1777810554 | 21.67° C | 27% | 1017.2 hPa | - | - | - | - |
* Rain since midnight (hover to see other rain measurements)
** Current wind speed in m/s (hover to see current wind gust speed)